Location: *
(49.4547°N, 7.9131°E)
Time: 09:40:17
(UTC+00:00)

Cosmos 2082 - Pass Details

Date: 22 September 2019
Orbit: 834 x 855 km, 71.0° (Epoch: 19 October)

Event Time Altitude Azimuth Distance (km) Brightness Sun altitude
Rises 19:31:07 0° 203° (SSW) 3,413 6.8 -20.3°
Reaches altitude 10° 19:33:34 10° 203° (SSW) 2,481 6.1 -20.7°
Maximum altitude 19:39:16 82° 117° (ESE) 869 3.6 -21.5°
Drops below altitude 10° 19:45:01 10° 30° (NNE) 2,493 6.1 -22.3°
Sets 19:47:28 0° 30° (NNE) 3,431 6.9 -22.6°
